Simultaneous Nadir Overpasses (SNOs) Predictions

Prediction of SNOs between FY3D and NOAA-19 Satellite Orbit:

Table of predicted SNOs for the next 14.0 days since TLE Epoch: 6/26/2021
Index Date (FY3D) Time (FY3D) Lat,Lon (FY3D) SZA (FY3D ) Date (NOAA-19) Time (NOAA-19) Lat,Lon (NOAA-19) SZA (NOAA-19 ) Distance(km) Time Diff (sec)
1 07/03/2021 08:49:04 78.21, 24.85 56.34 07/03/2021 08:47:56 78.21, 22.25 56.63 59.32 68
2 07/03/2021 09:39:54 -78.43,-169.09 123.34 07/03/2021 09:38:52 -78.42,-169.19 123.32 2.54 62
3 07/03/2021 10:30:39 78.44, -1.87 56.69 07/03/2021 10:29:50 78.44, -1.79 56.69 1.74 49
4 07/03/2021 11:21:23 -78.43, 165.53 123.34 07/03/2021 11:20:52 -78.43, 165.39 123.31 3.16 31
5 07/03/2021 12:12:08 78.44, -27.25 56.69 07/03/2021 12:11:50 78.45, -27.22 56.70 0.82 18
6 07/03/2021 13:02:53 -78.47, 139.92 123.27 07/03/2021 13:02:52 -78.44, 139.96 123.30 3.52 1
7 07/03/2021 13:53:37 78.45, -52.63 56.70 07/03/2021 13:53:50 78.46, -52.65 56.71 1.38 13
8 07/03/2021 14:44:22 -78.47, 114.54 123.26 07/03/2021 14:44:52 -78.45, 114.54 123.29 2.36 30
9 07/03/2021 15:35:06 78.45, -78.02 56.71 07/03/2021 15:35:50 78.47, -78.07 56.72 2.60 44
10 07/03/2021 16:25:51 -78.47, 89.15 123.25 07/03/2021 16:26:52 -78.46, 89.12 123.28 1.57 61
11 07/03/2021 17:16:36 78.49,-103.63 56.78 07/03/2021 17:17:50 78.48,-103.50 56.73 3.06 74



Historial Predications of SNOs between FY3D and NOAA-19
